Location: Gollag?dem
(17.0207°N, 80.7261°E)
Time: 15:17:47
(UTC+00:00)

Meteor 2-10 Rocket - Pass Details

Date: 03 August 2024
Orbit: 733 x 882 km, 81.2° (Epoch: 11 September)

Event Time Altitude Azimuth Distance (km) Brightness Sun altitude
Exits shadow 22:00:36 56° 87° (E) 923 4.0 -30.6°
Drops below altitude 10° 22:05:29 10° 17° (NNE) 2,291 6.5 -29.6°
Sets 22:07:49 0° 13° (NNE) 3,199 7.3 -29.1°
